Wind_Speed
30 30 30 29 27 25 23 22 21 21 20 19 17 15 14 14 13 13 14 15 16 17 18 19 19 19 18 17 14 13 11 10 10 11 14 10 6 7 11 11 10 14 20 18 18 19 17 17 16 15 11 10 8 8 8 8 6 3 3 5 2 2 1 4 5 5 7 6 7 10 10 11 11 10 11 10 8 10 12 11 11 13 9 11 20 29 31 30
31 31 30 30 28 26 24 22 21 21 20 19 17 16 15 14 14 13 14 15 17 18 18 19 20 20 18 15 12 11 9 10 14 13 13 12 9 8 10 11 11 19 24 19 20 22 18 16 17 15 11 8 8 8 8 8 8 6 4 4 1 2 6 5 1 9 11 7 8 11 11 11 11 10 10 10 11 12 11 12 11 13 14 17 24 30 31 31
31 31 31 30 29 27 24 22 21 21 19 18 17 17 16 15 15 14 15 16 17 19 18 19 20 19 16 11 10 7 7 12 12 6 3 7 12 12 11 11 15 23 27 20 21 22 17 16 17 15 11 9 8 9 10 8 8 7 4 3 1 6 9 1 4 6 11 12 12 11 9 9 10 9 8 9 13 12 10 11 12 14 17 20 23 27 30 30
31 31 31 31 30 27 24 22 21 20 18 17 17 17 17 17 16 15 16 17 18 19 18 18 18 15 11 8 7 3 7 11 4 6 6 6 10 11 10 14 19 26 28 19 19 20 17 15 15 14 11 9 8 10 10 8 6 6 6 4 2 7 9 1 5 6 5 6 9 10 9 8 9 9 8 10 11 10 10 11 12 15 19 21 22 25 28 28
31 32 32 32 31 28 25 23 21 19 18 16 17 18 18 18 17 17 18 18 19 19 18 17 14 10 8 7 4 2 7 6 4 8 9 11 8 7 10 17 23 27 27 20 18 19 16 14 14 13 10 9 9 9 9 10 7 5 9 6 5 7 7 2 3 6 4 0 6 9 10 9 9 8 9 10 7 3 6 10 13 16 19 21 22 23 24 25
31 32 32 33 32 29 26 23 21 18 17 16 17 19 19 19 19 19 19 19 19 18 17 14 8 6 6 6 3 5 8 1 6 8 11 12 7 6 11 21 25 25 25 20 18 18 16 14 13 12 10 9 10 10 8 10 9 7 9 6 8 9 5 3 3 3 2 1 5 8 8 8 9 8 7 10 6 5 8 11 14 17 19 22 23 22 22 23
32 32 33 33 32 30 26 24 21 18 17 17 18 19 20 20 20 20 19 19 18 16 13 8 3 4 6 6 3 8 10 1 7 9 13 12 7 5 14 24 26 25 23 20 18 17 15 15 14 11 10 10 10 10 9 9 10 10 8 6 5 5 4 2 2 3 3 0 3 5 7 9 9 7 6 12 8 12 13 14 14 17 19 22 23 22 22 22
31 32 33 33 33 30 27 24 20 18 18 18 18 20 20 21 20 20 18 16 14 11 7 4 2 4 6 5 6 8 7 3 8 9 12 11 4 8 19 22 24 24 22 21 19 16 15 16 15 11 10 10 9 9 9 10 11 12 11 9 6 4 4 4 3 5 3 2 2 5 7 8 8 5 6 12 10 7 13 15 15 18 18 20 21 22 22 21
31 32 33 33 33 30 27 24 20 18 18 19 20 21 22 22 20 17 15 11 9 6 3 3 4 4 5 6 10 7 1 6 8 8 8 6 2 13 20 19 23 23 20 20 19 17 14 13 15 13 11 10 10 9 9 10 8 10 13 12 8 6 6 6 7 6 5 3 4 6 7 7 7 4 6 10 8 9 13 15 16 18 19 19 19 21 21 21
31 32 33 34 33 30 27 24 19 18 18 19 20 22 23 21 17 14 10 7 4 2 3 5 5 5 6 8 10 4 5 6 6 6 6 3 6 15 16 16 23 21 18 18 18 18 14 12 14 12 11 10 10 9 9 10 6 4 9 12 11 9 7 7 7 8 7 5 5 7 5 5 5 3 4 7 9 11 13 15 16 17 18 18 18 19 20 20
32 33 34 34 33 30 28 23 19 17 18 19 21 23 21 17 14 10 6 3 2 4 8 7 6 7 8 10 9 3 6 6 4 4 4 2 7 13 14 15 20 19 16 15 16 18 16 14 11 9 9 7 9 10 10 13 11 7 8 9 12 12 10 10 10 10 7 5 7 7 5 4 4 5 3 5 9 12 14 15 16 17 16 18 19 18 17 17
32 33 33 34 33 31 28 23 18 15 16 18 21 22 19 14 11 8 4 1 5 11 10 7 6 7 9 10 4 6 7 3 2 3 1 2 6 11 12 13 17 18 15 13 15 17 17 15 12 11 7 3 8 8 7 12 13 12 11 10 11 12 13 14 13 12 9 7 9 6 6 3 5 6 4 6 9 10 13 15 15 16 16 16 18 17 15 17
31 32 33 34 32 30 28 23 18 15 16 18 21 21 16 12 9 6 3 3 11 13 6 4 5 7 9 5 3 6 5 1 0 2 0 1 4 8 10 11 13 16 15 13 13 15 17 16 13 15 9 5 7 2 4 8 10 11 11 10 10 10 11 14 14 14 13 11 12 9 4 4 7 8 7 7 8 7 10 14 14 14 15 15 16 15 15 18
30 31 33 34 32 30 27 22 17 15 16 19 22 20 14 11 9 6 5 7 12 8 0 1 4 7 9 1 7 3 2 1 3 3 1 3 5 7 10 11 11 14 14 13 12 11 15 16 14 13 11 11 9 5 5 8 8 10 11 9 9 8 9 13 15 16 15 12 14 10 3 4 6 10 13 10 12 13 11 13 15 14 14 14 15 16 15 17
30 31 33 34 32 30 26 21 16 15 16 20 22 18 13 11 8 6 6 8 11 2 1 2 5 7 7 3 6 2 3 3 3 2 2 5 7 6 10 11 11 14 13 12 11 10 12 15 13 10 10 12 11 8 7 8 8 9 10 9 10 9 9 12 16 17 15 12 14 11 4 5 7 12 14 11 12 13 6 9 14 15 15 15 15 16 15 16
30 31 33 34 32 29 25 20 15 15 17 20 20 14 11 11 7 6 7 9 9 1 1 4 7 8 7 1 4 2 3 3 3 2 4 6 7 5 8 10 12 13 11 10 10 9 11 12 11 10 10 11 11 9 7 8 8 9 10 9 10 11 10 9 14 17 17 11 13 13 5 3 7 12 15 13 13 11 5 12 16 16 16 16 14 15 15 16
29 31 33 34 32 28 24 18 14 14 17 19 17 10 9 10 4 5 8 9 8 3 6 8 6 7 5 3 1 2 5 6 5 3 6 6 7 5 7 9 11 13 10 10 10 8 9 9 8 9 10 10 9 9 8 9 9 8 10 10 11 13 12 9 10 15 17 13 13 15 8 5 9 13 17 17 16 14 10 18 18 16 16 15 14 15 16 16
29 30 33 33 32 28 22 17 13 13 17 17 14 10 11 9 4 7 10 8 6 7 9 8 7 6 2 3 2 5 9 6 3 3 6 6 7 7 8 9 10 12 11 10 10 9 9 8 8 9 9 10 10 10 10 10 10 10 11 10 11 13 13 12 10 11 17 17 16 15 12 12 11 11 14 18 17 15 17 17 13 16 17 16 15 15 16 17
30 29 32 33 32 27 21 16 12 12 16 16 14 14 13 10 6 8 11 9 7 5 4 2 4 4 1 4 6 7 6 3 2 3 6 6 8 9 9 9 10 13 11 9 11 12 9 8 9 10 10 12 13 14 14 13 12 12 13 12 13 13 13 14 12 10 14 16 15 14 13 14 13 10 11 15 16 16 18 12 8 13 17 16 15 15 15 17
30 29 31 32 31 27 19 13 10 11 13 16 19 15 8 6 4 4 6 8 4 5 5 3 5 5 4 5 8 9 6 4 3 1 4 6 9 10 10 9 10 12 11 10 11 12 10 9 11 12 13 16 17 17 17 17 14 11 11 13 16 15 13 14 14 13 12 12 14 15 14 14 14 14 14 13 15 17 15 10 10 15 16 16 16 16 16 17
31 29 30 31 30 26 17 11 9 10 10 14 19 10 2 7 5 3 7 5 2 3 5 3 5 5 4 6 8 9 6 2 2 3 3 7 9 9 8 9 11 9 11 13 10 11 11 11 13 16 17 16 17 18 17 18 16 12 10 11 13 15 14 12 14 15 14 11 13 15 14 14 14 16 17 17 16 16 14 14 17 19 15 14 15 16 16 15
31 30 30 30 29 24 17 10 8 9 9 11 11 6 7 8 7 6 8 6 2 1 4 2 4 4 3 2 4 7 8 4 4 6 3 7 9 9 8 9 11 9 11 13 9 10 11 13 16 18 17 16 15 16 18 18 16 13 10 9 9 11 13 13 13 16 15 9 11 15 14 14 14 13 15 19 17 13 15 17 18 18 16 14 14 14 14 14
31 30 30 29 27 22 16 10 7 7 8 8 6 8 7 7 8 7 6 7 4 4 5 3 4 3 3 0 2 6 9 5 1 5 4 7 9 8 7 8 11 11 12 14 12 10 10 12 17 17 15 16 17 15 16 16 13 12 10 9 9 10 11 11 10 14 13 9 10 14 13 13 13 13 15 19 18 15 16 14 12 13 15 15 15 14 14 16
31 30 29 29 26 19 14 11 9 7 6 4 5 8 7 7 9 8 6 7 5 5 4 1 3 3 4 3 3 8 6 2 3 3 3 8 6 4 8 8 10 12 11 15 16 14 12 11 15 18 16 17 18 15 15 13 11 13 14 11 10 11 12 11 10 11 12 12 12 13 11 10 12 14 15 17 17 15 16 17 15 15 16 16 15 15 15 16
30 30 29 29 24 16 13 10 7 5 6 3 4 9 9 8 8 8 6 6 4 6 6 3 3 1 3 3 5 7 5 2 4 2 1 7 5 1 6 7 8 11 12 16 17 14 13 13 12 16 18 18 17 15 15 13 10 13 16 14 14 13 13 14 13 9 9 11 14 14 10 8 12 16 15 15 16 17 18 20 19 14 12 12 13 14 13 14
30 29 29 27 21 14 11 5 4 9 8 2 7 11 10 8 7 5 5 6 4 6 7 5 3 1 1 2 2 5 4 3 1 1 2 3 5 6 6 6 7 10 12 12 12 9 11 15 12 12 17 19 17 15 15 15 10 9 12 16 18 17 15 14 12 9 8 8 12 16 12 8 10 15 17 15 17 20 20 19 17 14 12 12 12 12 12 14
28 27 28 24 15 12 9 6 9 11 6 5 10 12 10 8 6 4 4 6 4 4 5 4 2 1 2 3 5 7 4 1 2 4 2 1 3 6 6 7 7 8 10 8 8 8 10 17 15 13 15 17 15 14 14 15 12 9 8 11 15 18 18 15 10 10 10 8 10 15 14 9 9 13 16 17 18 20 20 18 17 16 15 14 12 12 13 14
27 27 27 19 8 7 8 9 11 8 5 9 11 11 10 7 4 4 5 5 2 3 2 4 3 2 3 3 6 7 5 4 4 3 3 3 5 5 7 10 10 9 10 9 9 8 11 17 18 15 14 14 13 12 14 16 13 11 10 7 8 13 17 16 11 9 10 10 10 13 15 12 9 10 14 18 19 19 19 19 18 18 17 15 13 14 16 17
27 26 23 15 4 3 5 8 10 7 7 9 10 11 9 5 5 4 6 5 3 3 0 2 2 2 5 6 4 3 5 4 4 2 1 6 6 6 7 7 10 12 12 12 11 10 10 14 17 16 12 11 13 13 16 18 13 12 13 9 5 9 13 14 12 9 10 12 11 13 16 13 8 8 11 15 17 17 18 17 17 18 18 17 15 16 18 17
27 25 18 10 4 4 6 7 7 6 8 9 11 12 8 5 5 6 6 3 3 4 1 1 1 1 5 7 5 1 4 3 4 5 5 6 6 7 8 6 8 10 11 12 13 14 13 11 13 14 12 11 13 14 16 17 14 12 14 10 7 8 9 10 10 9 10 13 14 17 19 16 10 8 10 12 13 14 15 15 17 18 17 18 17 16 17 16
25 22 13 5 5 8 8 6 2 7 9 10 12 10 7 5 5 7 4 0 2 4 3 2 1 2 4 6 2 1 2 3 3 6 5 5 7 8 7 7 7 7 9 10 11 14 17 14 11 11 13 13 13 14 13 14 14 12 11 10 8 7 8 8 9 10 11 12 13 17 20 19 13 9 10 13 15 15 14 14 19 21 20 19 17 17 17 15
24 19 7 2 5 7 9 8 9 11 10 11 12 7 6 5 6 7 2 2 2 2 2 3 3 2 4 5 3 3 4 2 2 5 5 4 5 4 3 3 3 5 7 8 10 12 14 16 13 12 13 15 14 12 11 12 13 12 10 10 9 8 7 9 9 10 11 11 12 15 18 18 14 11 13 14 16 18 17 15 18 23 23 21 19 17 12 11
21 14 5 3 5 7 9 10 10 11 11 11 10 6 5 6 5 3 1 2 1 4 3 1 2 3 5 6 2 3 5 3 3 4 3 5 7 3 1 5 7 7 7 6 9 10 10 14 18 16 13 14 15 12 10 11 12 12 11 10 10 9 9 10 10 10 11 11 13 16 16 14 12 13 16 17 15 16 19 18 17 21 22 21 21 18 13 13
17 7 7 6 9 10 9 10 9 9 10 10 8 5 7 8 3 2 2 4 5 3 2 1 4 4 4 4 3 4 5 2 1 5 4 5 7 6 5 1 4 7 8 8 8 9 10 11 16 18 12 13 17 16 12 11 11 12 12 11 10 10 9 9 9 9 10 9 13 17 14 11 10 10 14 18 17 14 13 15 16 17 19 18 18 19 17 17
11 3 6 9 11 10 8 9 7 8 9 7 6 6 7 6 2 2 2 5 4 1 1 1 6 7 5 3 2 2 3 0 2 3 6 5 5 5 3 4 6 6 6 7 6 7 12 10 12 20 18 15 18 18 16 13 11 11 12 12 11 11 10 8 8 10 10 9 11 13 10 9 8 8 11 15 18 18 12 10 14 16 19 17 16 17 17 15
9 3 6 7 7 7 8 7 6 6 8 6 7 6 3 2 5 5 4 4 4 4 4 4 5 6 5 3 3 4 1 3 4 4 5 5 3 3 3 5 5 7 6 6 6 7 9 10 10 16 22 21 18 17 18 16 10 9 12 12 11 12 12 9 9 10 10 10 9 9 10 10 9 9 11 14 17 20 17 12 13 14 20 19 15 16 17 16
10 5 5 4 7 8 7 6 5 6 7 7 6 4 3 5 6 6 4 4 4 4 7 6 2 2 4 2 2 4 3 5 4 2 4 4 2 0 2 2 3 5 8 7 6 8 6 8 12 11 15 20 20 19 20 19 15 10 10 12 11 13 13 9 8 9 10 10 8 11 14 12 10 9 11 15 15 15 18 18 15 14 17 19 17 17 17 18
12 8 5 3 9 9 6 5 5 6 6 6 4 1 4 4 6 6 4 5 4 3 6 5 1 1 3 5 3 3 4 6 1 1 6 3 3 0 2 1 2 5 8 8 6 7 7 8 9 8 9 13 16 17 16 18 21 18 11 9 10 12 12 10 9 9 10 10 7 11 14 12 11 10 11 16 16 14 15 17 17 16 16 16 17 20 21 20
12 8 2 6 10 8 5 5 6 6 6 6 3 2 2 4 6 5 3 3 4 4 5 4 2 0 2 4 5 3 4 6 5 4 4 2 2 2 3 2 4 7 8 8 8 6 6 8 8 8 9 11 11 13 13 14 19 20 16 11 10 10 10 10 9 8 9 9 9 10 11 9 9 9 11 15 17 18 17 16 17 18 18 17 16 18 21 20
10 6 2 11 11 7 5 7 8 6 5 3 3 2 4 3 4 4 4 4 4 4 4 5 2 2 3 3 3 5 6 5 6 6 3 3 3 3 5 4 5 9 10 9 10 8 6 7 8 9 11 12 10 10 12 13 13 16 15 12 11 11 10 10 10 9 9 8 8 8 8 8 7 8 12 13 14 16 19 17 15 16 18 18 17 16 17 18
8 4 5 13 12 7 9 9 5 4 3 1 3 3 4 3 3 4 4 3 5 2 3 6 5 3 6 7 4 4 5 5 8 8 5 6 4 2 4 6 7 9 10 9 9 6 5 7 8 10 9 11 12 12 15 18 16 14 13 13 13 12 12 12 11 11 10 8 8 7 7 7 7 8 11 12 9 10 14 18 17 16 18 16 17 18 17 17
7 3 7 14 14 10 10 5 1 3 2 3 4 5 4 2 2 2 1 1 2 1 2 5 6 3 5 7 6 6 6 7 8 7 6 5 4 3 4 7 9 9 8 9 7 2 4 6 8 10 10 11 15 16 16 20 20 15 14 16 16 13 13 12 12 11 11 10 9 9 8 4 3 5 8 11 10 7 7 12 14 15 16 15 16 17 16 15
3 3 6 11 15 11 8 1 2 1 3 4 2 4 2 2 1 1 1 2 2 0 1 5 3 4 5 5 6 7 6 6 8 8 7 6 3 5 8 9 9 10 8 7 6 5 4 5 8 8 9 11 14 14 13 15 16 13 13 15 17 17 16 13 12 10 10 13 12 9 9 5 7 6 3 6 8 8 6 8 11 12 13 14 15 15 14 15
4 3 3 8 14 11 5 1 2 2 3 2 1 3 3 2 5 5 4 4 3 3 4 5 3 1 3 5 6 7 5 3 6 6 7 6 2 5 7 7 7 9 7 4 5 6 4 6 7 8 9 9 11 11 10 13 14 11 12 15 17 20 22 18 13 7 6 12 15 12 10 6 9 9 4 2 2 5 6 7 9 8 7 9 12 11 10 12
4 3 1 6 9 6 3 4 3 3 4 3 2 2 4 4 4 5 6 3 2 6 5 2 2 3 5 5 6 7 6 6 6 4 4 7 5 4 5 4 5 8 6 7 7 7 6 6 6 7 10 10 9 7 6 8 8 10 15 21 21 22 22 18 10 5 5 10 13 12 10 9 9 12 8 6 7 6 5 4 5 8 7 6 4 3 3 5
3 2 3 3 3 4 5 4 5 2 3 2 1 1 0 2 6 2 5 3 3 4 5 1 3 5 4 5 6 6 7 7 6 5 4 6 6 6 5 5 9 9 4 8 9 8 6 8 9 10 12 10 8 7 8 9 8 11 14 18 21 23 19 12 8 7 8 9 11 11 7 9 12 14 10 8 6 4 3 1 2 4 8 6 1 3 1 2
3 3 5 4 2 3 4 4 4 3 1 1 1 2 2 3 2 4 2 3 2 4 4 1 3 5 3 4 5 6 6 7 7 7 7 5 6 6 6 8 11 6 2 4 10 7 5 9 11 15 16 16 15 15 14 12 12 15 15 15 19 19 19 15 13 13 12 10 12 13 10 9 9 9 10 7 6 6 6 8 7 4 5 6 6 4 1 3
4 3 4 3 3 3 4 4 5 4 3 2 1 1 1 2 3 2 1 1 2 4 2 0 2 4 4 5 5 5 6 7 7 6 5 5 6 6 6 7 8 5 3 7 10 7 7 10 12 15 17 17 18 18 16 14 13 16 16 15 19 16 17 18 18 18 16 12 9 11 12 12 9 2 9 9 7 7 7 7 3 4 9 9 7 3 2 5
4 3 4 2 2 3 4 3 2 4 5 3 2 1 2 2 2 3 3 3 3 2 2 3 3 3 5 6 6 5 5 6 6 4 3 6 7 8 7 6 5 5 7 9 8 6 7 9 11 14 15 18 19 17 16 16 15 16 17 15 15 14 15 19 19 20 23 19 13 12 13 14 8 5 9 5 5 6 7 7 4 3 7 7 7 7 5 3
4 3 4 2 3 3 3 2 0 2 4 1 0 2 2 2 2 3 3 4 4 2 2 6 5 5 7 6 6 6 5 6 7 6 5 7 7 6 6 5 3 4 5 7 7 6 6 8 10 11 11 15 18 17 17 17 16 16 17 16 14 14 15 18 18 19 22 20 18 17 15 15 10 2 8 7 6 6 6 6 5 4 5 6 8 9 9 8
6 4 4 2 3 2 2 1 0 0 3 1 1 1 1 1 3 4 4 4 5 4 4 6 6 6 7 7 6 6 6 6 8 9 8 9 9 7 6 5 5 5 5 5 6 6 6 7 9 9 9 11 15 17 19 19 17 17 18 17 17 16 14 14 14 16 18 19 19 17 14 14 10 3 9 9 8 8 7 6 6 6 8 9 9 9 9 9
5 5 2 3 2 1 3 1 1 1 2 3 2 2 2 2 3 4 4 2 3 4 4 6 7 7 7 7 5 6 7 8 10 10 10 10 11 11 9 9 10 9 7 7 6 6 7 7 7 8 9 10 13 15 15 16 16 15 14 15 17 17 16 16 15 15 17 18 17 14 14 14 7 7 10 11 11 10 8 7 8 8 10 11 10 9 9 10
Wind_Direction
14 12 10 9 6 3 0 357 354 350 347 346 347 346 342 340 336 333 332 330 329 326 324 323 320 321 322 324 316 308 314 299 276 245 236 248 245 241 254 249 232 191 171 181 186 178 184 195 198 193 201 214 219 229 216 211 223 218 245 257 266 322 284 212 211 141 137 167 173 175 160 145 148 138 134 149 154 147 146 155 141 119 139 155 137 141 146 146
12 11 9 7 5 4 360 356 353 350 348 345 346 345 341 338 336 333 330 328 326 326 325 323 321 322 323 325 315 313 316 281 265 256 244 245 244 264 268 236 209 182 178 193 191 182 187 190 191 191 201 216 212 219 217 201 205 213 245 271 315 278 242 228 181 114 130 184 189 182 169 151 155 148 159 166 145 152 153 144 133 119 132 137 135 143 148 149
10 9 7 6 5 3 359 355 352 350 348 345 344 342 340 337 334 331 328 326 323 324 324 323 323 322 326 324 315 324 313 278 260 250 239 250 254 277 280 217 189 180 184 197 192 188 194 191 190 192 204 219 210 216 216 193 198 208 224 266 238 246 255 269 28 89 132 174 183 178 169 146 153 153 176 167 140 158 158 141 144 133 132 135 140 146 150 154
8 6 5 4 3 2 358 355 352 350 348 345 343 339 338 335 331 329 325 323 322 324 323 323 323 323 332 324 324 341 287 274 235 92 56 330 285 274 260 202 182 181 190 203 196 196 203 196 194 198 213 225 213 218 221 201 199 204 213 233 226 265 275 63 43 26 83 156 164 167 160 148 165 164 172 159 147 169 157 151 155 141 140 142 145 149 154 158
7 5 3 2 1 360 357 355 352 349 347 345 342 337 336 332 327 325 321 319 320 322 320 321 322 324 334 326 333 292 271 263 108 59 19 344 316 259 228 191 179 181 196 210 200 201 209 204 200 204 222 234 218 217 222 215 213 237 241 220 191 245 286 340 39 28 14 151 158 168 161 164 172 168 177 149 128 174 152 162 157 143 145 146 150 153 157 161
5 3 1 0 359 357 356 354 352 350 348 344 339 335 333 329 325 322 318 318 318 320 319 319 320 323 333 331 326 247 264 303 71 25 357 344 329 253 208 183 177 182 201 214 203 202 209 205 203 208 223 237 231 224 223 220 217 243 256 230 202 220 252 308 357 12 329 227 171 171 162 169 162 170 178 111 95 227 181 169 155 145 150 148 153 157 161 165
2 1 359 359 358 356 354 351 350 350 347 342 336 333 331 328 325 321 319 318 318 320 314 311 311 318 332 327 281 237 251 322 59 19 354 345 332 236 185 175 174 184 203 212 203 202 205 204 205 211 221 233 239 232 229 229 226 240 262 269 248 237 249 275 320 300 300 264 183 167 171 182 163 169 164 126 167 210 164 154 151 145 151 151 156 161 164 167
1 359 358 357 356 355 352 349 349 347 344 341 336 333 331 328 324 320 320 321 321 320 309 299 291 311 330 303 264 245 237 49 42 11 358 360 352 178 167 169 177 187 204 210 204 202 204 206 205 211 222 231 243 237 233 238 233 236 249 263 262 250 248 238 237 257 258 220 199 177 186 181 156 160 166 149 164 168 134 138 142 142 152 155 160 164 165 168
360 358 357 356 355 353 350 348 345 344 342 340 338 335 333 330 324 321 324 329 327 322 311 281 278 309 315 275 267 265 127 47 20 10 8 16 108 164 162 171 182 190 205 209 208 205 205 209 206 214 231 238 246 240 232 237 233 229 239 249 255 247 233 224 224 235 236 222 185 183 188 164 147 172 182 158 134 126 131 135 141 148 155 157 163 166 165 170
359 357 356 355 353 352 349 346 344 342 340 340 339 335 334 333 326 326 333 343 336 324 316 289 287 296 278 262 268 273 66 25 355 14 15 39 142 166 175 180 183 192 207 208 209 209 210 216 211 219 244 257 259 247 229 233 243 241 241 249 257 255 239 226 224 225 231 236 205 185 175 144 143 188 193 150 134 137 140 140 147 154 157 159 165 168 166 171
357 356 354 354 353 351 349 346 343 340 340 340 337 334 336 335 329 333 343 360 352 315 310 290 281 279 264 263 272 331 32 351 329 7 18 88 153 176 188 184 186 200 209 207 211 212 216 221 218 223 240 260 263 250 231 233 248 260 259 262 257 253 245 233 228 226 222 239 235 188 131 98 151 195 210 162 154 152 152 151 154 158 160 160 165 169 167 173
356 355 353 353 353 352 349 346 342 339 340 339 335 335 336 333 329 334 333 335 322 318 309 283 273 272 268 264 274 18 2 321 326 339 9 135 173 184 194 190 194 208 213 212 213 215 222 225 226 230 227 246 253 247 241 237 243 252 260 266 254 244 237 229 225 225 215 226 235 191 128 123 194 196 190 188 174 160 163 159 160 163 160 162 166 169 170 173
356 353 352 353 352 352 349 346 342 339 341 338 335 335 333 329 325 319 290 291 321 321 306 268 265 252 265 273 82 38 349 324 273 285 223 186 191 188 201 204 205 215 221 225 220 216 224 229 231 236 238 249 249 298 335 257 243 247 249 254 254 247 234 220 215 217 211 209 205 185 165 185 193 198 198 192 168 165 185 171 167 169 161 164 167 167 173 172
354 352 352 353 353 352 348 346 342 339 343 338 334 334 330 325 318 302 271 300 325 321 219 305 253 247 262 246 89 72 4 335 226 212 212 220 197 187 202 211 215 217 222 233 237 226 224 229 235 242 245 248 264 334 316 249 234 240 239 239 243 249 240 210 202 211 207 197 187 177 204 206 190 205 198 180 168 178 207 188 171 172 165 166 167 167 174 172
353 352 352 353 353 352 349 346 341 340 345 338 333 331 327 324 315 285 261 309 332 313 69 314 221 246 261 159 103 127 196 228 223 197 279 228 200 194 197 206 212 210 216 229 242 239 224 226 231 240 240 238 259 286 263 234 223 226 229 229 226 235 248 211 191 202 207 190 180 178 198 206 208 211 182 162 182 176 195 210 182 175 171 168 168 169 172 173
352 351 352 353 353 352 349 345 339 341 345 338 334 331 328 329 308 268 259 306 329 278 232 267 223 247 275 67 100 188 229 280 319 285 243 219 221 215 183 192 200 199 208 218 228 235 223 223 229 236 239 230 236 249 245 231 219 216 222 228 222 220 240 224 184 193 206 189 186 194 192 192 213 204 165 160 188 159 163 224 195 180 176 170 170 169 173 174
352 350 351 351 352 352 348 345 338 341 345 339 335 329 327 335 312 252 258 285 306 250 246 273 277 260 266 23 116 252 336 344 340 273 209 200 232 222 173 186 191 187 197 207 213 220 209 212 224 227 233 229 221 225 234 227 213 206 215 228 230 222 228 224 180 188 199 189 201 207 188 189 214 194 167 174 181 156 195 221 196 182 178 172 173 171 174 175
352 349 349 349 351 350 347 345 336 341 346 340 333 318 309 319 305 261 262 266 257 236 244 261 277 257 213 47 333 331 351 352 346 229 195 195 219 215 191 191 184 182 194 200 203 207 197 197 214 219 219 224 219 214 220 222 217 210 207 220 231 226 225 218 194 192 198 195 204 205 188 190 196 176 168 180 176 169 203 217 202 191 178 173 177 173 175 177
351 349 347 348 348 348 346 341 335 341 345 343 331 306 289 286 266 248 247 234 225 248 263 246 269 281 14 34 360 343 335 312 278 205 184 190 203 203 196 190 183 187 194 193 191 196 196 195 208 217 212 212 214 214 220 227 230 226 215 219 227 228 227 217 205 198 201 207 211 207 201 191 172 157 170 181 178 189 202 203 224 209 179 174 179 174 176 178
349 348 345 346 346 346 343 337 338 341 342 342 327 297 268 285 253 215 252 244 250 326 320 346 341 319 330 1 354 334 294 236 242 203 164 183 193 191 187 187 189 192 202 199 186 189 198 204 207 215 214 210 213 218 228 237 247 255 240 228 225 231 234 214 203 201 202 214 218 214 216 203 180 170 177 185 191 201 196 185 235 226 184 175 181 175 176 180
348 347 344 344 344 343 340 333 339 346 338 327 321 312 24 3 339 2 337 281 202 336 299 345 336 306 337 346 345 337 308 209 128 92 153 191 192 186 178 188 195 194 208 208 191 187 202 217 214 214 218 218 217 220 230 240 249 259 260 250 230 226 237 223 201 197 203 216 222 221 225 221 201 176 173 186 197 203 192 190 218 218 190 175 178 178 178 179
347 346 343 341 342 341 335 325 336 353 340 310 318 10 39 10 347 337 326 283 197 203 267 279 266 285 17 328 336 330 290 251 136 116 151 210 206 195 175 191 210 202 202 209 199 190 204 224 222 215 218 224 224 221 225 235 244 244 245 257 247 226 229 232 213 197 197 213 224 221 227 231 213 180 181 190 190 201 204 204 213 202 183 176 181 180 180 183
345 345 342 340 340 337 331 320 309 322 327 321 360 32 10 354 338 315 295 282 262 200 228 252 255 311 10 291 8 312 280 274 158 109 127 231 225 216 207 203 220 217 205 208 206 203 209 220 223 221 216 219 226 224 222 228 236 240 236 238 246 238 229 230 217 196 193 216 231 221 223 235 218 190 197 198 186 192 205 215 231 212 185 179 185 184 182 189
345 345 341 341 337 332 333 314 277 275 298 324 38 34 354 338 330 312 284 274 259 190 191 281 273 315 358 343 305 290 292 318 298 74 116 248 243 212 233 233 227 226 216 214 217 220 225 218 216 221 216 216 223 221 219 223 224 231 236 236 240 241 236 235 222 195 193 217 232 231 226 230 225 209 203 197 183 187 200 205 211 209 191 174 180 189 185 188
344 344 341 340 335 329 326 300 274 313 307 277 30 16 347 334 328 310 283 265 237 172 161 181 224 260 358 290 262 287 299 241 266 26 94 271 296 247 236 244 236 233 222 216 223 229 230 227 214 214 216 215 221 220 216 222 225 225 228 233 244 253 247 241 239 220 207 216 214 220 233 226 222 225 219 199 184 187 200 202 194 189 185 174 180 189 185 189
343 343 341 339 335 326 311 297 341 330 299 295 16 351 336 335 320 292 276 260 213 156 158 182 200 121 353 277 290 305 275 200 161 336 238 274 294 273 254 239 221 236 239 223 225 234 230 233 223 214 218 214 217 224 217 217 230 229 217 220 232 251 260 251 245 236 229 233 212 206 225 236 216 221 224 212 198 193 192 195 192 179 174 182 186 184 183 194
342 343 340 337 339 329 316 332 337 314 298 12 358 333 331 334 303 256 257 253 208 150 161 156 113 6 343 335 303 285 288 32 178 204 220 323 254 243 248 248 225 227 248 242 231 226 221 231 224 208 220 220 216 221 213 210 226 236 220 218 222 231 247 254 250 239 238 256 238 212 214 238 231 217 217 216 213 203 189 186 191 182 175 184 185 177 185 198
342 342 338 337 340 326 320 316 313 318 352 349 335 327 330 319 259 222 251 261 155 132 158 98 80 275 281 289 276 284 324 322 251 170 118 264 248 235 238 252 258 246 238 240 241 222 207 226 228 211 214 225 219 215 213 212 223 238 233 227 227 227 234 243 248 247 247 253 249 225 216 227 236 221 216 216 216 212 198 188 189 188 183 184 186 188 193 198
342 340 337 339 332 305 316 294 288 314 347 331 322 326 322 280 235 228 254 268 133 128 23 75 146 209 271 256 221 288 309 272 278 10 199 233 224 243 259 267 273 266 251 245 249 244 218 216 227 223 214 222 225 215 218 222 222 233 239 228 221 237 235 235 239 245 252 250 243 236 233 232 229 224 220 216 215 215 206 191 183 185 183 179 187 198 197 194
342 338 337 335 313 314 299 260 253 299 326 321 318 319 298 242 235 235 233 241 122 115 78 43 202 261 295 265 189 163 285 251 309 309 251 225 203 230 263 274 270 268 262 252 247 254 252 225 218 227 220 218 231 225 219 224 221 221 235 231 214 232 236 234 235 236 247 248 237 235 241 241 232 222 220 216 216 217 212 196 181 181 184 183 188 201 201 194
340 335 333 315 313 322 297 265 297 330 318 310 312 305 267 228 238 251 244 200 111 133 154 89 30 262 301 291 226 69 279 225 315 290 247 215 207 217 233 227 230 243 246 248 242 244 250 241 219 223 225 219 230 234 219 216 220 218 224 227 219 219 224 228 226 222 234 242 234 230 237 243 238 227 222 214 206 212 222 206 181 178 185 187 189 196 198 193
339 330 306 241 318 303 281 302 336 327 307 300 301 282 247 230 232 244 211 148 197 119 108 71 48 7 328 287 258 354 300 242 357 295 275 274 238 217 245 258 264 250 234 231 230 226 234 239 232 222 218 217 224 229 214 206 213 216 214 217 220 214 210 218 214 214 228 236 233 225 227 237 243 240 238 228 205 200 213 213 187 181 186 185 186 187 190 200
339 323 247 216 312 278 271 301 315 308 298 291 283 257 248 253 244 264 72 129 27 49 61 6 1 337 308 274 249 353 277 251 354 306 272 274 263 229 256 309 316 285 268 261 245 226 216 222 228 228 214 204 216 222 209 201 201 208 211 207 212 212 207 212 213 219 228 229 229 226 224 231 239 236 234 238 230 203 200 211 205 188 184 184 183 178 180 202
338 310 221 232 273 261 271 295 300 297 286 273 263 240 241 248 247 1 17 73 58 55 96 336 297 271 268 282 5 353 270 201 43 295 260 235 242 221 182 119 336 290 279 283 267 243 236 220 210 218 214 192 206 222 223 212 203 206 213 214 217 222 219 215 213 219 227 226 220 220 224 228 229 228 222 226 238 230 202 206 212 187 173 182 183 177 182 194
341 293 226 243 261 264 281 294 297 285 266 255 253 242 242 254 284 19 39 64 54 309 143 251 278 262 219 189 98 19 296 167 91 292 265 240 255 254 189 72 18 327 288 273 271 256 255 252 208 203 210 203 201 215 226 228 217 200 207 220 219 223 235 240 238 231 231 234 219 212 221 228 232 242 231 218 220 228 219 205 215 192 167 175 181 178 184 190
335 270 231 248 288 310 306 301 294 266 250 248 249 244 244 5 13 17 25 12 350 338 311 250 246 253 225 178 149 134 126 286 297 294 251 227 274 316 32 34 3 346 324 294 293 278 251 257 248 211 205 207 202 204 214 226 230 199 200 219 219 226 240 248 251 244 235 235 224 213 218 218 227 236 232 225 215 214 212 204 219 199 165 169 180 180 186 187
326 290 245 272 337 330 311 308 288 248 242 251 256 281 358 45 26 11 14 340 334 339 298 271 184 247 276 289 203 131 49 299 267 271 253 201 168 356 44 31 358 347 333 322 298 284 275 273 276 252 217 209 203 204 212 222 235 229 206 205 208 226 242 246 246 237 229 234 225 218 220 210 213 216 209 218 217 210 206 201 208 201 173 174 180 180 190 191
310 285 257 348 354 332 315 305 272 244 240 249 240 324 357 33 37 21 17 342 313 273 276 279 56 15 303 290 275 77 5 305 19 6 273 221 142 61 327 2 14 346 327 317 289 279 301 288 266 259 250 228 209 211 219 218 226 240 241 213 203 218 226 228 239 234 224 230 224 221 225 215 212 209 194 202 207 207 210 204 201 200 190 187 183 179 187 194
286 261 229 30 0 336 318 284 262 246 239 255 247 127 58 52 52 28 4 333 299 279 295 317 2 316 242 284 329 356 278 291 342 324 280 261 136 81 28 346 329 333 328 311 289 284 294 281 258 232 237 240 222 215 222 212 211 228 243 237 223 225 220 214 228 241 233 230 224 220 222 221 216 209 201 202 202 204 209 209 208 206 203 202 197 187 186 189
278 253 68 28 360 340 309 266 251 247 237 282 343 82 85 78 75 43 9 344 309 287 328 349 342 279 292 324 340 290 281 305 303 278 271 278 242 99 51 1 326 323 320 299 281 277 268 265 269 254 233 233 230 214 222 227 211 211 225 233 228 223 220 219 219 225 235 238 231 223 222 224 215 208 212 207 198 202 208 209 210 214 214 208 202 200 195 187
288 272 40 18 353 322 290 264 243 268 258 47 29 63 58 24 43 57 49 358 315 301 2 328 300 296 314 317 317 298 297 289 273 273 271 266 265 71 47 11 343 324 315 289 263 260 268 260 260 260 243 231 228 215 219 232 228 215 214 220 223 218 216 220 216 213 223 237 240 237 235 225 199 193 208 207 194 193 206 210 207 210 218 214 202 203 203 192
287 310 23 3 342 313 293 278 200 304 324 65 56 68 60 333 342 14 50 9 313 59 52 295 288 314 305 299 312 313 294 272 272 277 267 260 290 358 52 32 348 321 310 283 265 332 348 291 266 261 256 248 238 227 223 230 236 240 234 223 221 221 219 220 217 212 215 223 234 245 246 229 126 148 194 206 205 189 189 207 207 206 212 214 209 204 199 195
314 21 32 2 339 313 290 277 124 310 36 63 60 68 60 281 300 335 350 13 343 154 272 290 328 2 322 312 307 298 297 290 280 276 270 264 297 1 16 21 349 315 300 286 293 3 357 269 254 256 261 265 256 253 260 251 243 252 254 239 228 223 224 227 225 224 224 218 214 225 236 207 115 114 173 192 201 201 189 198 207 208 206 206 211 206 193 192
356 346 56 23 352 323 287 345 80 107 78 88 168 101 84 10 360 348 1 22 348 314 308 310 346 27 295 306 295 288 302 294 273 279 289 285 323 6 345 354 345 308 302 345 347 341 318 254 245 242 241 244 240 247 266 252 238 245 247 236 231 229 230 233 230 237 251 231 217 211 222 204 130 124 130 121 176 219 208 193 200 210 210 201 202 201 193 193
309 278 99 50 17 6 20 9 17 101 113 108 117 127 143 117 55 340 320 5 357 316 316 329 323 276 278 296 289 288 294 284 281 294 296 286 284 306 315 336 317 291 315 6 336 301 288 263 253 245 233 225 217 221 251 252 245 254 240 226 224 228 232 236 232 232 249 243 235 218 211 213 174 145 153 197 211 230 230 203 194 202 212 214 199 190 196 190
325 335 358 37 36 46 64 30 12 59 109 108 91 58 133 113 111 110 305 336 72 306 295 312 289 272 281 302 286 277 272 262 267 277 282 283 279 287 304 297 278 276 337 347 303 280 278 265 256 259 254 256 271 282 289 291 292 280 254 238 233 226 225 239 243 230 230 230 233 230 230 240 210 174 171 197 192 179 177 51 13 197 192 187 102 29 13 95
350 14 1 359 353 35 68 54 33 44 67 56 359 8 21 357 74 103 339 338 37 306 292 359 311 292 317 316 282 269 265 255 255 262 265 269 272 274 273 275 278 272 113 281 266 251 265 261 251 254 256 261 276 282 277 276 289 289 281 286 280 245 220 232 238 227 231 227 220 223 236 259 241 182 153 126 76 67 76 53 25 39 102 106 74 48 177 151
23 37 28 330 305 20 48 40 50 65 56 49 30 324 16 6 352 28 49 297 308 311 311 158 271 293 309 302 291 289 287 278 270 271 280 287 290 286 267 263 271 256 218 256 256 241 253 258 253 256 259 261 266 270 270 268 279 284 278 292 300 270 222 226 237 231 231 229 223 229 235 246 260 62 93 92 61 34 38 36 27 75 70 58 45 28 223 179
27 48 51 352 319 47 58 37 54 76 56 42 66 33 359 27 10 337 330 305 281 309 325 285 276 297 296 290 291 290 289 289 280 280 306 298 290 293 286 268 255 255 266 271 261 249 255 257 259 264 267 266 262 262 268 269 270 275 270 269 286 280 236 226 234 237 235 229 228 246 255 249 246 46 49 41 27 19 9 2 5 78 63 33 12 5 359 18
22 29 23 27 56 56 69 83 146 109 87 43 323 55 348 347 15 334 314 305 291 284 302 291 296 308 297 284 277 275 287 298 289 287 295 286 278 280 282 278 262 245 256 270 273 269 260 251 255 265 267 261 259 260 261 260 258 262 264 259 263 271 253 236 234 238 236 230 227 237 253 251 233 72 22 340 336 350 340 347 5 26 28 4 346 353 5 8
49 52 341 325 69 25 327 56 67 171 88 67 328 60 342 354 22 331 297 301 305 305 303 300 308 308 289 272 267 280 292 287 277 278 277 275 277 282 278 277 276 260 245 253 264 263 265 263 256 260 263 257 260 263 255 250 251 251 252 252 250 250 248 243 242 239 234 229 225 229 242 246 242 325 355 329 321 328 329 344 359 358 351 336 324 338 355 350
53 75 348 309 71 37 301 23 39 307 56 50 24 28 341 354 9 323 299 283 289 290 290 298 306 303 284 271 280 301 304 293 286 284 281 276 274 273 267 261 261 263 261 256 255 250 254 266 262 258 261 260 261 264 258 251 248 242 239 244 247 249 251 250 246 242 238 231 223 224 231 235 260 340 334 318 324 332 340 350 347 341 332 321 323 340 345 335
Height
815 812 810 807 805 803 801 799 797 795 793 792 790 789 788 786 785 784 783 781 780 778 777 775 773 772 771 771 769 768 767 767 767 765 763 758 756 757 757 757 757 759 760 760 760 760 759 759 757 757 760 759 759 757 753 754 754 766 781 782 784 787 781 775 766 759 762 762 757 747 741 747 750 745 740 740 745 746 751 753 749 751 755 752 754 761 767 773
815 812 810 807 805 802 801 798 796 794 792 791 789 788 787 786 785 783 782 780 779 778 776 775 773 772 770 770 768 767 767 766 765 761 757 756 756 756 755 755 756 758 759 759 757 755 756 756 754 755 759 759 758 754 754 752 754 769 779 781 786 787 771 755 748 747 757 763 755 744 738 740 743 740 736 745 754 750 754 755 751 757 757 753 756 762 769 773
815 812 810 807 805 802 800 798 796 794 792 790 789 787 786 785 784 782 781 780 778 777 775 774 772 771 770 769 767 767 767 765 762 757 754 755 755 754 754 754 755 756 757 756 754 753 753 753 752 755 758 759 755 753 755 751 754 763 772 783 782 776 763 743 736 737 745 753 752 744 734 737 737 733 736 744 752 753 756 756 756 763 761 758 759 762 768 772
815 812 810 807 804 802 800 797 795 793 792 790 788 787 785 784 783 782 780 779 777 776 775 773 772 771 770 768 767 767 767 764 757 752 753 753 752 751 751 752 753 755 756 755 754 753 752 751 751 754 758 760 753 750 754 750 752 756 764 777 771 767 763 743 734 732 731 735 740 738 737 745 737 729 736 744 756 758 753 752 753 758 759 760 761 762 767 771
815 812 809 807 804 802 799 797 795 793 791 789 788 786 784 783 782 780 779 778 776 775 774 772 771 770 769 768 767 767 767 765 753 748 752 751 750 749 749 750 753 754 755 755 754 752 751 750 751 755 759 760 754 753 755 746 746 754 753 756 759 765 766 746 732 733 731 729 733 735 740 745 734 730 734 743 761 762 752 747 745 750 754 757 760 763 767 770
815 812 809 806 804 801 798 796 794 792 791 789 787 785 784 782 780 779 777 776 775 774 773 771 771 770 769 768 767 768 767 761 750 749 751 749 749 747 747 750 752 754 756 755 751 751 751 750 754 760 760 759 755 754 753 742 743 757 750 741 746 752 756 746 735 734 731 732 735 734 734 733 735 738 733 744 762 757 748 741 739 746 749 753 758 762 767 770
815 811 809 806 803 801 798 795 794 791 790 788 786 784 783 781 779 778 776 775 774 773 772 770 771 769 769 768 767 767 763 755 748 750 751 748 748 745 747 750 751 755 755 753 750 750 751 752 757 758 760 760 755 751 748 743 742 755 753 742 740 738 741 741 736 735 732 734 733 727 729 732 740 742 735 749 756 745 741 736 736 743 746 752 758 762 767 769
814 811 808 805 802 800 797 795 793 791 789 787 785 783 782 780 778 776 774 774 772 771 771 770 770 769 768 768 766 762 756 752 749 751 750 748 748 745 748 750 753 755 753 751 748 748 750 753 755 754 760 758 751 748 746 747 747 751 752 744 738 737 737 736 735 736 732 732 729 728 734 733 736 739 737 745 744 733 733 734 737 744 748 754 759 762 766 769
814 811 808 805 802 799 796 794 792 790 788 786 784 782 781 779 776 775 773 772 771 771 770 770 770 769 769 767 763 758 753 751 751 752 751 750 749 748 750 751 753 754 752 750 746 747 750 752 752 750 755 752 746 747 745 752 753 745 744 741 737 737 735 733 735 735 733 730 728 735 742 736 735 742 744 739 735 733 732 738 742 746 752 756 759 762 765 769
813 810 807 804 801 798 796 793 791 789 787 785 783 781 779 777 775 774 773 772 771 771 770 770 769 768 768 765 761 758 752 751 752 752 751 751 750 750 751 751 752 752 750 749 746 746 747 748 746 743 747 747 745 745 744 751 746 736 738 738 735 736 732 732 735 734 732 731 728 738 748 743 737 748 756 742 733 736 737 744 746 749 755 757 760 761 763 768
813 810 807 804 800 798 794 792 790 789 787 785 783 781 779 776 775 773 772 772 771 771 770 769 768 768 767 764 760 756 751 752 753 752 752 752 751 752 751 751 752 751 749 747 747 746 745 744 740 742 749 749 747 745 743 742 737 734 737 740 737 735 733 731 735 733 734 737 730 734 750 755 750 754 760 747 736 738 742 748 749 751 755 756 760 761 763 767
812 809 806 803 800 796 793 791 789 788 786 784 782 780 778 776 774 773 772 772 771 770 769 768 768 768 766 762 757 754 752 753 753 752 752 751 751 752 751 751 751 751 749 746 747 745 745 742 740 748 749 746 749 749 743 733 734 736 737 747 744 736 737 733 733 732 734 742 731 731 757 770 765 758 753 744 738 739 744 750 751 753 754 756 759 761 763 766
812 809 806 802 799 795 793 790 788 787 785 783 781 779 777 776 774 774 772 772 771 769 768 767 767 767 767 760 753 753 754 752 753 752 752 751 751 751 751 751 751 751 749 747 746 745 747 743 743 747 742 745 749 743 739 732 736 741 740 749 748 744 742 729 727 730 732 738 728 737 771 777 766 757 749 744 743 747 752 752 753 753 753 756 757 760 763 763
812 809 806 802 798 795 792 789 788 786 784 782 780 778 776 775 774 773 772 771 770 768 768 767 767 767 766 757 751 753 753 752 752 750 751 751 750 750 751 751 751 751 750 748 747 745 747 744 744 745 741 744 742 736 742 742 741 746 747 748 749 754 744 721 720 728 732 731 720 741 777 775 764 760 749 745 748 756 762 756 752 753 752 754 756 759 763 762
812 809 805 802 798 795 791 789 787 785 784 782 779 777 775 774 773 772 772 771 769 769 768 767 766 766 761 754 750 752 751 750 749 749 750 749 748 748 749 750 750 750 750 750 749 747 746 745 747 751 748 742 741 748 754 750 744 745 755 756 749 751 741 718 714 722 731 727 717 744 778 771 760 756 745 745 749 754 766 761 752 754 753 754 755 758 762 762
811 808 804 801 798 794 791 789 787 785 783 781 778 777 774 773 772 772 771 770 769 769 767 766 764 763 761 753 749 750 749 748 747 748 750 749 748 746 746 749 749 750 751 750 750 748 746 747 748 750 750 747 751 758 758 755 751 745 752 756 747 746 742 726 715 714 721 726 725 741 765 768 757 748 742 747 751 755 769 768 755 754 752 752 755 756 759 762
810 807 803 801 798 795 792 789 787 785 783 780 778 776 774 773 771 771 770 769 769 768 768 765 760 761 759 749 748 751 747 747 748 748 748 749 748 746 746 748 747 748 750 750 750 748 747 750 753 752 751 752 751 756 764 765 758 747 747 749 741 737 739 734 726 715 712 728 740 738 750 766 756 742 742 747 750 758 771 767 754 751 751 751 752 754 757 760
810 806 803 801 798 795 792 789 787 785 783 780 777 776 774 773 771 770 769 769 769 768 768 764 761 765 761 751 751 752 747 748 748 747 748 748 748 747 746 746 746 748 751 752 751 751 752 752 755 758 756 755 751 754 766 761 748 745 746 747 742 733 732 733 730 720 713 727 740 739 746 758 749 738 742 744 745 757 764 757 751 748 747 750 750 752 755 757
809 806 803 800 798 795 792 790 788 786 783 779 777 775 772 772 771 770 768 766 766 767 766 762 759 764 762 754 751 749 747 748 748 746 746 746 747 746 744 745 745 749 755 757 755 752 753 756 759 762 759 756 751 748 751 743 733 734 734 738 740 734 728 723 721 715 713 727 734 735 742 745 744 743 745 743 742 751 753 751 758 753 744 747 749 749 752 756
808 805 802 800 797 795 792 790 788 786 783 779 775 772 771 772 769 767 765 761 761 762 761 758 756 757 756 752 750 748 747 746 745 744 744 745 745 744 744 745 747 751 754 755 755 749 750 760 761 758 753 748 745 741 739 733 727 727 729 730 731 732 725 713 714 711 710 729 735 730 735 737 740 744 744 744 742 745 747 754 767 758 744 745 746 747 750 753
807 804 801 798 796 794 792 790 788 786 783 780 776 771 773 776 773 772 770 762 758 758 759 757 756 755 754 753 751 749 747 746 744 743 745 744 742 746 747 747 752 756 751 748 748 746 750 760 755 747 743 738 737 737 737 735 732 733 735 732 727 728 723 707 709 711 708 728 736 727 734 738 735 735 738 741 742 743 744 756 770 759 744 743 744 746 748 749
807 803 800 797 795 793 791 789 787 786 783 780 777 775 777 779 779 778 776 769 760 757 758 756 755 754 751 752 752 750 751 749 747 744 745 744 743 748 748 748 754 753 747 744 747 752 757 757 746 737 735 735 735 734 737 739 738 738 737 738 733 724 720 711 704 706 710 726 736 730 738 740 728 726 733 736 739 741 738 743 753 750 743 744 744 746 748 750
806 802 799 796 793 792 790 788 787 785 782 779 778 779 779 781 780 778 777 774 764 757 757 756 756 755 753 753 751 751 752 749 749 746 744 745 744 744 746 749 751 748 745 745 747 755 759 750 738 731 731 736 739 735 737 742 741 741 738 742 740 723 723 725 711 707 712 721 729 730 737 736 726 728 735 731 729 733 733 734 742 743 740 742 742 744 748 751
805 801 798 795 792 790 788 787 785 783 782 780 779 781 781 781 780 778 777 772 764 757 755 756 755 755 755 754 752 752 751 748 749 747 744 745 743 742 745 746 748 748 744 742 742 747 748 737 728 730 731 736 741 739 740 745 745 742 737 739 739 726 723 724 713 710 717 722 723 728 742 741 730 732 734 727 724 728 731 738 749 746 735 735 739 741 744 747
803 801 797 794 792 789 788 787 783 781 781 778 779 781 781 781 779 779 778 771 764 757 755 757 755 755 755 754 752 749 750 750 747 745 743 743 743 745 746 742 745 749 742 739 742 743 739 726 721 731 734 735 741 741 740 744 746 743 736 734 734 727 723 719 713 716 731 738 725 729 758 756 733 729 728 722 727 734 733 735 742 740 733 736 741 741 743 744
803 800 797 794 791 788 787 784 782 782 779 776 780 781 780 781 779 779 779 771 762 757 758 759 756 757 756 753 750 747 753 753 744 743 743 743 743 745 749 743 741 745 739 734 738 738 733 724 722 732 735 736 742 742 736 737 746 745 731 726 730 730 728 724 721 728 741 742 720 718 752 758 737 730 722 715 723 731 731 729 729 733 739 742 742 742 745 746
802 799 796 793 791 790 786 783 784 781 777 778 781 781 780 780 778 779 780 775 763 755 757 756 756 758 756 753 749 751 761 756 744 743 742 744 743 742 751 746 740 742 734 734 743 737 730 729 728 732 736 738 741 741 733 733 746 743 722 719 728 732 735 730 728 735 735 730 719 710 729 750 744 728 714 711 718 722 725 728 726 728 736 739 738 742 747 748
801 798 795 793 791 791 789 787 786 780 780 782 781 781 780 779 779 777 781 782 766 753 754 755 756 756 753 751 749 752 756 751 751 749 740 743 744 743 751 748 741 740 731 738 750 734 725 733 732 730 739 739 734 733 729 730 741 735 718 719 727 730 735 732 734 739 731 733 738 721 718 743 746 722 708 709 717 720 721 724 725 724 728 735 739 742 745 746
800 797 794 793 791 791 790 789 787 782 783 783 781 782 779 778 779 775 782 783 762 752 758 756 756 757 753 751 752 753 750 748 753 748 739 742 742 743 749 744 741 741 733 736 744 731 721 724 724 726 736 736 729 726 724 727 733 727 718 721 727 731 732 733 738 740 738 745 749 731 717 733 740 724 713 714 717 719 715 715 718 719 722 730 736 739 738 739
799 796 794 793 791 790 789 787 786 785 784 783 782 781 778 779 779 780 787 777 755 755 759 754 757 758 756 754 753 755 754 752 750 745 742 742 741 742 742 738 740 744 739 735 737 731 719 714 715 720 726 727 724 721 718 721 723 722 724 728 734 737 735 736 736 738 752 756 744 730 717 723 737 728 713 711 710 706 705 708 713 717 722 729 732 733 732 734
797 795 793 793 791 791 788 784 784 785 784 783 782 779 779 778 776 782 782 763 753 760 759 758 761 758 758 759 756 755 755 753 751 749 746 742 743 744 742 742 744 747 748 743 738 734 726 722 719 717 716 719 724 722 716 716 718 723 731 735 744 747 743 746 743 744 764 761 737 725 718 721 736 726 705 697 694 695 699 702 708 717 723 726 728 728 727 731
795 793 792 792 791 790 788 784 783 784 784 782 781 778 778 781 778 773 765 755 760 764 760 763 764 760 762 761 758 759 758 755 753 752 750 747 745 743 745 748 748 754 757 747 741 737 732 727 720 716 714 716 727 731 724 721 722 728 734 740 754 760 760 765 760 754 760 751 729 721 723 728 728 713 697 689 685 688 692 691 698 709 714 718 723 724 725 731
794 791 790 791 790 789 788 786 784 785 783 781 780 774 777 786 778 760 750 755 765 764 761 765 763 762 764 760 759 761 759 757 756 754 753 751 750 746 748 750 748 757 757 744 739 738 734 728 721 721 717 713 724 732 732 730 728 733 735 741 756 762 769 777 766 756 754 742 724 716 722 731 725 705 692 687 680 677 679 682 685 692 701 709 713 717 724 732
792 790 789 789 788 787 786 785 784 784 782 780 778 775 782 786 769 752 752 758 764 764 763 767 764 763 764 762 763 762 761 760 757 757 755 752 753 749 749 753 753 754 752 748 743 736 740 736 722 722 719 714 721 724 722 722 725 729 725 730 743 745 753 762 755 753 751 738 725 721 724 730 724 703 684 680 676 669 670 675 676 680 692 702 707 711 718 726
791 789 789 787 786 785 784 784 783 782 781 778 776 777 781 776 759 753 760 762 764 765 764 766 766 765 763 762 764 764 766 764 758 758 756 753 753 746 745 755 759 757 757 758 748 735 740 732 707 706 708 708 718 717 710 716 724 722 717 726 735 728 728 735 732 729 732 733 727 722 721 714 703 688 673 673 676 672 672 674 674 679 688 698 705 708 712 718
790 789 788 786 784 783 782 783 781 781 779 776 777 775 770 767 763 763 767 767 767 769 768 766 766 767 762 759 763 765 767 766 760 760 756 752 755 751 754 763 763 763 763 763 756 744 745 733 703 699 703 702 711 713 708 716 722 716 720 729 723 712 715 728 730 718 719 736 729 715 716 708 699 694 679 674 678 675 677 680 678 677 685 697 703 705 708 712
790 788 786 784 782 782 781 781 780 780 777 774 778 775 763 764 769 769 770 770 769 771 773 770 768 768 766 764 763 764 769 765 759 764 760 753 759 760 763 768 766 767 766 766 763 749 746 743 715 704 710 700 697 706 706 706 708 712 720 719 711 712 715 722 735 732 732 743 727 709 713 713 714 712 690 680 685 681 679 682 681 678 683 694 698 701 703 703
791 788 784 782 782 781 779 780 778 776 774 773 776 773 766 768 772 771 772 773 771 772 773 771 770 771 773 773 763 760 772 772 762 767 763 755 764 768 766 770 769 767 766 767 766 750 748 754 731 711 716 706 693 706 715 707 702 706 706 701 708 729 732 727 737 740 741 746 733 715 711 707 709 706 692 690 692 688 683 681 682 683 683 687 690 695 699 697
790 785 780 779 781 780 778 779 776 772 772 772 770 768 770 774 775 774 774 774 774 774 772 770 772 775 774 772 768 766 771 773 769 772 767 760 767 771 770 774 774 770 767 767 767 755 752 762 748 718 713 713 706 711 721 714 705 704 703 701 705 716 721 723 727 728 733 740 736 727 719 708 695 686 685 689 687 686 687 683 682 682 680 681 682 684 689 691
786 780 777 779 780 779 778 777 773 769 769 769 767 767 772 776 777 777 776 776 776 775 776 776 775 778 774 769 772 771 768 772 774 773 769 763 765 771 773 776 778 775 770 767 767 760 755 762 760 733 716 720 720 716 718 715 709 710 714 717 714 708 707 712 715 714 721 732 732 731 729 710 683 672 676 678 676 677 680 680 681 678 673 673 674 676 679 682
782 777 777 779 779 779 776 774 771 766 763 767 770 772 777 779 778 779 779 779 778 775 778 781 777 779 780 774 772 771 771 778 776 769 767 764 765 774 779 779 780 779 775 770 765 762 761 762 761 747 732 730 724 713 712 711 705 706 711 714 714 709 709 720 725 712 710 721 722 724 728 703 668 661 667 667 668 670 670 673 676 674 671 668 667 670 672 674
781 778 779 780 779 778 775 772 771 766 766 773 777 778 784 784 780 781 780 779 779 778 780 781 777 777 780 778 775 775 777 780 777 773 773 770 769 775 779 780 781 779 778 773 763 760 767 769 767 758 742 732 720 707 707 707 700 701 705 702 703 705 705 719 729 716 708 716 713 714 722 699 662 656 664 664 664 665 664 667 669 669 667 665 664 663 665 668
780 779 780 781 779 775 775 776 774 773 776 780 780 780 785 784 780 781 780 780 781 781 781 780 778 782 785 782 783 783 782 784 783 778 777 775 775 778 778 779 782 780 777 775 770 769 774 775 773 766 749 734 722 711 708 708 707 712 711 702 700 700 697 700 705 704 707 713 712 722 730 704 670 663 665 663 663 663 664 665 665 666 663 661 662 661 662 666
783 781 778 780 780 774 775 777 776 779 784 784 783 785 787 787 786 784 782 783 785 782 783 783 783 788 790 786 787 787 788 792 790 784 784 784 783 782 780 781 786 783 778 780 783 783 782 776 773 772 765 754 746 740 733 723 717 720 716 706 701 697 695 694 693 702 715 710 704 722 731 703 675 671 672 670 670 669 666 663 663 664 663 660 660 659 661 665
786 783 778 778 778 775 776 777 775 780 787 787 787 788 789 790 793 793 788 787 788 787 787 788 788 788 788 788 791 791 791 795 795 792 792 792 788 784 782 785 789 785 781 785 788 786 785 780 776 779 775 764 761 765 761 744 731 725 715 706 702 699 699 701 703 720 733 717 703 712 716 696 676 677 682 680 678 677 671 665 664 665 664 662 661 662 664 665
785 785 783 780 776 774 777 777 777 782 786 789 792 789 788 789 791 793 792 789 791 791 789 789 789 789 790 793 798 800 797 796 797 797 797 798 794 788 786 788 787 783 784 789 788 785 785 780 777 780 777 765 761 764 761 750 744 738 723 712 706 700 701 707 717 728 727 718 712 705 702 698 685 679 685 684 681 681 678 674 671 667 665 665 667 668 667 667
787 791 793 793 788 781 781 782 784 787 787 790 796 794 792 793 790 793 796 793 793 792 790 791 793 793 797 801 804 805 800 795 796 796 796 797 794 789 788 788 786 784 787 790 785 783 787 784 776 776 773 765 760 757 751 747 749 745 734 727 719 705 704 713 720 717 711 719 722 704 698 708 695 680 686 690 689 687 684 683 681 673 669 670 673 674 672 671
792 797 797 800 799 792 790 791 790 791 792 792 797 798 797 798 798 799 798 795 794 793 794 798 798 798 802 805 806 805 802 800 802 800 797 796 794 792 789 787 786 785 785 785 779 778 784 782 772 768 766 760 755 751 745 744 748 744 737 736 729 715 711 715 715 710 708 719 721 706 702 708 699 691 693 694 695 694 689 686 681 676 676 678 679 678 675 672
797 799 796 798 799 796 798 799 795 795 799 800 801 803 802 804 806 804 800 799 798 797 799 803 801 799 802 804 804 806 805 805 807 804 800 800 799 797 793 789 786 784 784 783 777 774 779 779 771 768 768 762 754 750 747 747 750 747 739 735 730 722 715 714 714 711 708 710 709 707 709 706 700 702 701 693 692 692 688 686 682 681 685 686 685 684 680 678
806 807 805 802 801 801 800 799 797 797 801 806 808 808 807 807 809 808 804 803 804 802 802 804 802 801 803 803 803 804 802 803 805 804 801 803 801 797 795 792 788 785 787 788 783 778 781 781 773 771 773 766 755 750 750 749 749 748 743 735 731 729 722 716 715 712 710 709 707 708 714 707 695 696 698 694 692 692 692 692 690 689 690 691 692 691 688 687
814 816 815 809 808 810 806 800 797 796 799 805 808 809 809 809 811 812 808 805 805 805 805 805 805 805 804 802 802 801 797 798 800 798 796 797 796 793 791 789 787 788 788 790 789 786 786 783 774 774 778 769 755 752 749 743 742 746 745 738 735 734 729 722 716 712 709 710 711 714 718 708 693 692 698 696 694 696 697 697 697 696 695 694 696 695 693 693
818 817 817 813 812 814 810 803 799 798 802 809 812 812 813 812 811 813 813 809 805 805 805 806 808 809 806 802 801 799 796 795 795 792 790 789 787 786 786 784 783 786 786 787 788 787 788 788 780 779 781 769 754 748 743 740 747 748 740 736 735 732 727 720 713 708 705 705 710 717 715 701 694 700 705 702 700 702 703 701 701 701 699 696 696 697 698 696